Flag for Fiji Weather past 2 weeks in Lautoka, Fiji

Now
73 °F

More clouds than sun.


Feels Like: 76 °F
Forecast: 73 / 79 °F
Wind: 12 mph from South

Location: Nandi

Current Time: Jul 23, 2014 at 12:31:25 PM

Latest Report: Jul 23, 2014 at 12:00 PM


Visibility: N/A

Pressure: 29.86 "Hg

Humidity: 69%

Dew point: 63 °F

Location of LautokaLocation

Historic Weather in Lautoka — Graph

°F

Lautoka temperature yesterday

Maximum temperature yesterday: 77 °F (at 12:00 PM)
Minimum temperature yesterday: 70 °F (at 1:00 AM)
Average temperature yesterday: 72 °F

Past Weeks' High & Low Weather Summary

 TemperatureHumidityPressure
High86 °F (Jul 10, 2:00 PM)100% (Jul 9, 4:00 AM)29.98 "Hg (Jul 9, 4:00 AM)
Low59 °F (Jul 12, 6:00 AM)48% (Jul 12, 3:00 PM)29.77 "Hg (Jul 8, 3:00 PM)
Average72 °F79%29.88 "Hg
* Reported Jul 8 5:00 AM — Jul 23 5:00 AM, Lautoka, Weather by CustomWeather, © 2014

Note: Actual official high and low records may vary slightly from our data, if they occured in-between our weather recording intervals... More about our weather records

Advertising

Lautoka weather history for previous 24 hours

 ConditionsComfort  
Time TempWeatherWind HumidityBarometerVisibility
5:00 AM
Jul 23
68 °FPartly cloudy.7 mph94%29.83 "HgN/A
4:00 AM68 °FPartly cloudy.7 mph94%29.83 "HgN/A
3:00 AM66 °FLight rain. Partly cloudy.7 mph100%29.83 "HgN/A
2:00 AM68 °FLight rain. Partly cloudy.5 mph94%29.83 "HgN/A
1:00 AM68 °FLight rain. Partly cloudy.7 mph100%29.86 "HgN/A
12:00 AM68 °FLight rain. Partly cloudy.3 mph94%29.86 "HgN/A
11:00 PM
Jul 22
70 °FPartly cloudy.5 mph88%29.86 "HgN/A
10:00 PM70 °FPartly cloudy.6 mph88%29.89 "HgN/A
9:00 PM70 °FPartly cloudy.6 mph88%29.86 "HgN/A
8:00 PM72 °FPartly cloudy.6 mph83%29.86 "HgN/A
7:00 PM72 °FPartly cloudy.10 mph83%29.83 "HgN/A
6:00 PM73 °FPartly cloudy.8 mph78%29.80 "HgN/A
5:00 PM73 °FBroken clouds.10 mph78%29.80 "HgN/A
4:00 PM75 °FBroken clouds.9 mph69%29.77 "HgN/A
3:00 PM75 °FBroken clouds.8 mph74%29.80 "HgN/A
2:00 PM77 °FBroken clouds.9 mph69%29.80 "HgN/A
1:00 PM77 °FBroken clouds.8 mph69%29.83 "HgN/A
12:00 PM77 °FBroken clouds.5 mph74%29.86 "HgN/A
Weather by CustomWeather, © 2014

See weather overviewHow to use our weather pages